Gainesville, TX

3:43 AM CDT on July 28, 2017 (GMT -0500)
Gainesville Municipal

Weather History for KGLE - February, 2014

Change the Weather History Date:

Friday, February 14, 2014

  Actual Average (KDTO) Record (KDTO)
Temperature  
Mean Temperature 52 °F -  
Max Temperature 67 °F 58 °F 79 °F (2015)
Min Temperature 36 °F 36 °F 23 °F (2002)
Degree Days  
Heating Degree Days 14    
Growing Degree Days 2 (Base 50)    
Moisture  
Dew Point 31 °F    
Average Humidity 56    
Maximum Humidity 90    
Minimum Humidity 19    
Precipitation  
Precipitation 0.00 in - - ()
Sea Level Pressure  
Sea Level Pressure 29.91 in    
Wind  
Wind Speed 10 mph (NNW)    
Max Wind Speed 26 mph    
Max Gust Speed 37 mph    
Visibility 10 miles    
Events      
Averages and records for this station are not official NWS values.
T = Trace of Precipitation, MM = Missing Value Source: NWS Daily Summary

Daily Weather History Graph

Daily Weather History Graph

Search for Another Location

Airport or City:

Trip Planner

Search our weather history database for the weather conditions in past years. The results will help you decide how hot, cold, wet, or windy it might be!

Date:

Astronomy

Feb. 14, 2014 Rise Set
Actual Time 7:13 AM CST 6:12 PM CST
Civil Twilight 6:48 AM CST 6:37 PM CST
Nautical Twilight 6:19 AM CST 7:07 PM CST
Astronomical Twilight 5:50 AM CST 7:36 PM CST
Moon 6:14 PM CST (2/14) 6:43 AM CST (2/14)
Length of Visible Light 11h 49m
Length of Day
10h 58m
Full, 100% of the Moon is Illuminated
Feb 14
Full
Feb 14
Full
Feb 22
Last Quarter
Mar 1
New
Mar 8
First Quarter

Hourly Weather History & Observations

Time (CST) Temp. Windchill Dew Point Humidity Pressure Visibility Wind Dir Wind Speed Gust Speed Precip Events Conditions
12:15 AM 44.8 °F 40.4 °F 36.9 °F 74% 29.85 in 10.0 mi SSE 8.1 mph - N/A   Clear
12:35 AM 44.8 °F 41.6 °F 36.9 °F 74% 29.84 in 10.0 mi SSE 5.8 mph - N/A   Clear
12:55 AM 44.6 °F 41.4 °F 36.7 °F 74% 29.84 in 10.0 mi SSE 5.8 mph - N/A   Clear
1:15 AM 43.0 °F 40.3 °F 36.1 °F 77% 29.83 in 10.0 mi SSE 4.6 mph - N/A   Clear
1:35 AM 42.4 °F 40.7 °F 36.1 °F 78% 29.81 in 10.0 mi SE 3.5 mph - N/A   Clear
1:55 AM 40.8 °F 37.8 °F 36.0 °F 83% 29.80 in 10.0 mi SE 4.6 mph - N/A   Clear
2:15 AM 40.1 °F 35.3 °F 35.8 °F 85% 29.80 in 10.0 mi SE 6.9 mph - N/A   Clear
2:35 AM 39.2 °F 34.2 °F 35.4 °F 86% 29.79 in 10.0 mi SSE 6.9 mph - N/A   Clear
2:55 AM 39.4 °F 35.2 °F 35.6 °F 86% 29.79 in 10.0 mi SSE 5.8 mph - N/A   Clear
3:15 AM 39.2 °F 35.0 °F 35.2 °F 86% 29.78 in 10.0 mi SSE 5.8 mph - N/A   Clear
3:35 AM 39.6 °F 34.7 °F 35.6 °F 86% 29.78 in 10.0 mi SSE 6.9 mph - N/A   Clear
3:55 AM 39.2 °F 35.9 °F 35.6 °F 87% 29.78 in 10.0 mi SSE 4.6 mph - N/A   Clear
4:15 AM 38.7 °F 35.2 °F 35.4 °F 88% 29.76 in 10.0 mi SSE 4.6 mph - N/A   Clear
4:35 AM 38.7 °F 35.2 °F 35.6 °F 89% 29.75 in 10.0 mi SE 4.6 mph - N/A   Clear
4:55 AM 38.7 °F 34.3 °F 35.2 °F 87% 29.75 in 10.0 mi SSE 5.8 mph - N/A   Clear
5:15 AM 38.3 °F 32.5 °F 35.4 °F 89% 29.73 in 10.0 mi SE 8.1 mph - N/A   Clear
5:35 AM 39.2 °F 34.2 °F 35.8 °F 88% 29.73 in 10.0 mi SSE 6.9 mph - N/A   Clear
5:55 AM 39.2 °F 34.2 °F 35.6 °F 87% 29.73 in 10.0 mi SSE 6.9 mph - N/A   Clear
6:15 AM 39.2 °F 34.2 °F 35.8 °F 88% 29.71 in 10.0 mi SSE 6.9 mph - N/A   Clear
6:35 AM 38.7 °F 35.2 °F 35.6 °F 89% 29.73 in 10.0 mi SSE 4.6 mph - N/A   Clear
6:55 AM 37.4 °F 32.8 °F 34.7 °F 90% 29.73 in 10.0 mi South 5.8 mph - N/A   Clear
7:15 AM 36.9 °F 33.1 °F 34.2 °F 90% 29.73 in 10.0 mi South 4.6 mph - N/A   Clear
7:35 AM 37.6 °F 32.3 °F 34.5 °F 89% 29.73 in 7.0 mi South 6.9 mph - N/A   Clear
7:55 AM 37.8 °F 35.3 °F 34.7 °F 89% 29.75 in 10.0 mi South 3.5 mph - N/A   Clear
8:15 AM 39.2 °F - 35.8 °F 88% 29.75 in 10.0 mi Calm Calm - N/A   Clear
8:35 AM 41.5 °F - 35.8 °F 80% 29.77 in 10.0 mi Calm Calm - N/A   Clear
8:55 AM 43.5 °F - 36.9 °F 77% 29.78 in 10.0 mi Calm Calm - N/A   Clear
9:15 AM 47.8 °F - 38.5 °F 70% 29.80 in 10.0 mi NW 11.5 mph - N/A   Clear
9:35 AM 50.9 °F - 37.4 °F 60% 29.80 in 10.0 mi NW 12.7 mph - N/A   Clear
9:55 AM 53.2 °F - 36.3 °F 53% 29.82 in 10.0 mi NNW 15.0 mph 21.9 mph N/A   Clear
10:15 AM 54.9 °F - 36.9 °F 51% 29.83 in 10.0 mi NNW 19.6 mph 23.0 mph N/A   Clear
10:35 AM 56.1 °F - 36.9 °F 48% 29.85 in 10.0 mi NNW 23.0 mph 26.5 mph N/A   Clear
10:55 AM 58.3 °F - 37.2 °F 45% 29.87 in 10.0 mi NNW 23.0 mph 28.8 mph N/A   Clear
11:15 AM 59.0 °F - 37.2 °F 44% 29.88 in 10.0 mi NNW 26.5 mph - N/A   Clear
11:35 AM 61.7 °F - 37.2 °F 40% 29.88 in 10.0 mi NNW 23.0 mph 26.5 mph N/A   Clear
11:55 AM 63.7 °F - 36.3 °F 36% 29.91 in 10.0 mi NNW 23.0 mph 34.5 mph N/A   Clear
12:15 PM 64.4 °F - 35.6 °F 34% 29.91 in 10.0 mi NNW 25.3 mph 36.8 mph N/A   Clear
12:35 PM 65.7 °F - 35.1 °F 32% 29.93 in 10.0 mi NNW 21.9 mph 32.2 mph N/A   Clear
12:55 PM 66.2 °F - 32.2 °F 28% 29.92 in 10.0 mi North 26.5 mph 34.5 mph N/A   Clear
1:15 PM 66.0 °F - 29.1 °F 25% 29.93 in 10.0 mi NNW 24.2 mph 32.2 mph N/A   Clear
1:35 PM 65.3 °F - 27.7 °F 24% 29.94 in 10.0 mi NNW 25.3 mph 34.5 mph N/A   Clear
1:55 PM 65.5 °F - 28.9 °F 25% 29.94 in 10.0 mi NW 24.2 mph - N/A   Clear
2:15 PM 66.2 °F - 26.4 °F 22% 29.95 in 10.0 mi NNW 23.0 mph 28.8 mph N/A   Clear
2:35 PM 67.1 °F - 24.8 °F 20% 29.96 in 10.0 mi NNW 18.4 mph 27.6 mph N/A   Clear
2:55 PM 66.4 °F - 23.2 °F 19% 29.97 in 10.0 mi NW 20.7 mph 27.6 mph N/A   Clear
3:15 PM 66.2 °F - 24.1 °F 20% 29.97 in 10.0 mi NNW 20.7 mph 26.5 mph N/A   Clear
3:35 PM 65.5 °F - 21.6 °F 19% 29.98 in 10.0 mi NNW 24.2 mph 28.8 mph N/A   Clear
3:55 PM 64.4 °F - 21.6 °F 19% 29.99 in 10.0 mi NNW 25.3 mph 35.7 mph N/A   Clear
4:15 PM 64.2 °F - 24.1 °F 22% 29.99 in 10.0 mi NNW 20.7 mph 32.2 mph N/A   Clear
4:35 PM 63.5 °F - 23.5 °F 22% 30.00 in 10.0 mi NW 18.4 mph 28.8 mph N/A   Clear
4:55 PM 62.6 °F - 21.7 °F 21% 30.00 in 10.0 mi NNW 20.7 mph 29.9 mph N/A   Clear
5:15 PM 61.3 °F - 23.7 °F 24% 30.02 in 10.0 mi NNW 17.3 mph 25.3 mph N/A   Clear
5:35 PM 59.7 °F - 24.6 °F 26% 30.04 in 10.0 mi NNW 12.7 mph 23.0 mph N/A   Clear
5:55 PM 57.7 °F - 25.5 °F 29% 30.05 in 10.0 mi NNW 11.5 mph - N/A   Clear
6:15 PM 53.2 °F - 25.9 °F 35% 30.06 in 10.0 mi NNW 9.2 mph - N/A   Clear
6:35 PM 50.9 °F - 26.2 °F 38% 30.06 in 10.0 mi NW 6.9 mph - N/A   Clear
6:55 PM 49.5 °F - 25.7 °F 40% 30.07 in 10.0 mi NW 8.1 mph - N/A   Clear
7:15 PM 49.1 °F - 26.1 °F 41% 30.07 in 10.0 mi NNW 9.2 mph - N/A   Clear
7:35 PM 48.2 °F - 26.1 °F 42% 30.07 in 10.0 mi NNW 6.9 mph - N/A   Clear
7:55 PM 47.7 °F - 26.1 °F 43% 30.08 in 10.0 mi NNW 8.1 mph - N/A   Clear
8:15 PM 48.2 °F - 26.6 °F 43% 30.08 in 10.0 mi North 10.4 mph - N/A   Clear
8:35 PM 49.1 °F - 25.9 °F 40% 30.09 in 10.0 mi NNW 6.9 mph - N/A   Clear
8:55 PM 44.6 °F 41.4 °F 26.1 °F 48% 30.10 in 10.0 mi NNW 5.8 mph - N/A   Clear
9:15 PM 42.6 °F 38.4 °F 26.4 °F 53% 30.11 in 10.0 mi NNW 6.9 mph - N/A   Clear
9:35 PM 44.2 °F 41.0 °F 26.8 °F 50% 30.11 in 10.0 mi NW 5.8 mph - N/A   Clear
9:55 PM 40.1 °F 36.9 °F 26.6 °F 59% 30.11 in 10.0 mi NNW 4.6 mph - N/A   Clear
10:15 PM 39.2 °F - 26.4 °F 60% 30.11 in 10.0 mi Calm Calm - N/A   Clear
10:35 PM 40.8 °F 36.2 °F 26.4 °F 57% 30.10 in 10.0 mi North 6.9 mph - N/A   Clear
10:55 PM 42.3 °F 38.6 °F 25.7 °F 52% 30.10 in 10.0 mi North 5.8 mph - N/A   Clear
11:15 PM 38.3 °F 33.9 °F 26.1 °F 61% 30.12 in 10.0 mi NNW 5.8 mph - N/A   Clear
11:35 PM 38.3 °F - 25.9 °F 61% 30.12 in 10.0 mi Calm Calm - N/A   Clear
11:55 PM 38.3 °F 32.5 °F 26.2 °F 62% 30.13 in 10.0 mi North 8.1 mph - N/A   Clear